| Date | Time | Temp. (oF) | Dew Point (oF) | Rel. Hum. (%) | Press. (in.) | Wind Dir. | Wind Speed (mph) | Hourly Rainfall (in.) |
|
|---|---|---|---|---|---|---|---|---|---|
| 1 | 11/15 | 00:00 | 56 | 54 | 94 | 29.90 | WNW | 0 | 0.00 |
| 2 | 11/14 | 23:00 | 56 | 54 | 93 | 29.90 | NNW | 0 | 0.00 |
| 3 | 11/14 | 22:00 | 56 | 54 | 95 | 29.91 | NNW | 0 | 0.00 |
| 4 | 11/14 | 21:00 | 56 | 54 | 95 | 29.90 | NW | 0 | 0.00 |
| 5 | 11/14 | 20:00 | 56 | 54 | 96 | 29.90 | NW | 0 | 0.00 |
| 6 | 11/14 | 19:00 | 56 | 55 | 98 | 29.90 | NW | 0 | 0.00 |
| 7 | 11/14 | 18:00 | 56 | 55 | 97 | 29.89 | NNW | 0 | 0.00 |
| 8 | 11/14 | 17:00 | 57 | 55 | 95 | 29.88 | NNW | 0 | 0.00 |
| 9 | 11/14 | 16:00 | 58 | 55 | 93 | 29.88 | NE | 7 | 0.00 |
| 10 | 11/14 | 15:00 | 57 | 55 | 96 | 29.86 | NNE | 0 | 0.00 |
| 11 | 11/14 | 14:00 | 56 | 54 | 95 | 29.88 | E | 3 | 0.00 |
| 12 | 11/14 | 13:00 | 57 | 54 | 93 | 29.89 | ENE | 6 | 0.00 |
| 13 | 11/14 | 12:00 | 56 | 55 | 97 | 29.88 | NE | 6 | 0.00 |
| 14 | 11/14 | 11:00 | 55 | 53 | 96 | 29.91 | NNE | 6 | 0.00 |
| 15 | 11/14 | 10:00 | 54 | 53 | 98 | 29.91 | NNE | 7 | 0.00 |
| 16 | 11/14 | 09:00 | 53 | 51 | 96 | 29.92 | N | 0 | 0.00 |
| 17 | 11/14 | 08:00 | 53 | 51 | 94 | 29.90 | NE | 0 | 0.00 |
| 18 | 11/14 | 07:00 | 52 | 51 | 97 | 29.88 | NNE | 0 | 0.00 |
| 19 | 11/14 | 06:00 | 52 | 51 | 97 | 29.88 | NE | 4 | 0.00 |
| 20 | 11/14 | 05:00 | 52 | 50 | 96 | 29.88 | N | 5 | 0.00 |
| 21 | 11/14 | 04:00 | 51 | 49 | 96 | 29.88 | NW | 1 | 0.00 |
| 22 | 11/14 | 03:00 | 52 | 49 | 91 | 29.87 | ENE | 5 | 0.00 |
| 23 | 11/14 | 02:00 | 53 | 49 | 88 | 29.87 | E | 7 | 0.00 |
| 24 | 11/14 | 01:00 | 54 | 49 | 85 | 29.88 | NNE | 6 | 0.00 |